TimeEDT,TemperatureF,Dew PointF,Humidity,Sea Level PressureIn,VisibilityMPH,Wind Direction,Wind SpeedMPH,Gust SpeedMPH,PrecipitationIn,Events,Conditions,WindDirDegrees,DateUTC
12:15 AM,57.2,57.2,100,30.14,10.0,Calm,Calm,-,N/A,,Unknown,0,2013-07-29 04:15:00
12:35 AM,57.2,57.2,100,30.14,10.0,Calm,Calm,-,N/A,,Unknown,0,2013-07-29 04:35:00
12:55 AM,57.2,55.4,94,30.14,10.0,Calm,Calm,-,N/A,,Unknown,0,2013-07-29 04:55:00
1:15 AM,55.4,55.4,100,30.13,10.0,Calm,Calm,-,N/A,,Unknown,0,2013-07-29 05:15:00
1:35 AM,55.4,55.4,100,30.13,10.0,Calm,Calm,-,N/A,,Unknown,0,2013-07-29 05:35:00
1:55 AM,55.4,55.4,100,30.13,10.0,Calm,Calm,-,N/A,,Unknown,0,2013-07-29 05:55:00
2:15 AM,55.4,55.4,100,30.13,10.0,Calm,Calm,-,N/A,,Unknown,0,2013-07-29 06:15:00
2:35 AM,55.4,53.6,94,30.13,10.0,Calm,Calm,-,N/A,,Unknown,0,2013-07-29 06:35:00
2:55 AM,55.4,53.6,94,30.14,10.0,Calm,Calm,-,N/A,,Unknown,0,2013-07-29 06:55:00
3:15 AM,53.6,53.6,100,30.14,1.5,Calm,Calm,-,N/A,,Mist,0,2013-07-29 07:15:00
3:55 AM,53.6,53.6,100,30.15,10.0,Calm,Calm,-,N/A,,Unknown,0,2013-07-29 07:55:00
4:15 AM,53.6,53.6,100,30.15,10.0,Calm,Calm,-,N/A,,Unknown,0,2013-07-29 08:15:00
4:55 AM,53.6,53.6,100,30.16,10.0,Calm,Calm,-,N/A,,Unknown,0,2013-07-29 08:55:00
5:15 AM,51.8,51.8,100,30.17,10.0,Calm,Calm,-,N/A,,Unknown,0,2013-07-29 09:15:00
5:55 AM,51.8,51.8,100,30.17,10.0,Calm,Calm,-,N/A,,Unknown,0,2013-07-29 09:55:00
6:15 AM,50.0,50.0,100,30.18,0.8,Calm,Calm,-,N/A,,Mist,0,2013-07-29 10:15:00
6:35 AM,50.0,50.0,100,30.18,10.0,Calm,Calm,-,N/A,,Unknown,0,2013-07-29 10:35:00
6:55 AM,50.0,50.0,100,30.19,10.0,Calm,Calm,-,N/A,,Unknown,0,2013-07-29 10:55:00
7:15 AM,51.8,50.0,94,30.19,10.0,Calm,Calm,-,N/A,,Clear,0,2013-07-29 11:15:00
7:35 AM,53.6,51.8,94,30.20,10.0,Calm,Calm,-,N/A,,Clear,0,2013-07-29 11:35:00
7:55 AM,53.6,53.6,100,30.20,10.0,Calm,Calm,-,N/A,,Clear,0,2013-07-29 11:55:00
8:15 AM,57.2,55.4,94,30.21,10.0,Calm,Calm,-,N/A,,Clear,0,2013-07-29 12:15:00
8:35 AM,57.2,55.4,94,30.21,10.0,Calm,Calm,-,N/A,,Clear,0,2013-07-29 12:35:00
8:55 AM,59.0,55.4,88,30.21,9.0,Calm,Calm,-,N/A,,Clear,0,2013-07-29 12:55:00
9:15 AM,62.6,55.4,77,30.22,10.0,Calm,Calm,-,N/A,,Clear,0,2013-07-29 13:15:00
9:35 AM,64.4,55.4,73,30.22,10.0,Calm,Calm,-,N/A,,Clear,0,2013-07-29 13:35:00
9:55 AM,64.4,55.4,73,30.22,10.0,Calm,Calm,-,N/A,,Clear,0,2013-07-29 13:55:00
10:15 AM,66.2,55.4,68,30.22,10.0,Calm,Calm,-,N/A,,Clear,0,2013-07-29 14:15:00
10:35 AM,68.0,53.6,60,30.22,10.0,Calm,Calm,-,N/A,,Clear,0,2013-07-29 14:35:00
10:55 AM,69.8,51.8,53,30.22,10.0,ENE,4.6,-,N/A,,Clear,60,2013-07-29 14:55:00
11:15 AM,71.6,50.0,46,30.22,10.0,Calm,Calm,-,N/A,,Clear,0,2013-07-29 15:15:00
11:35 AM,71.6,50.0,46,30.23,10.0,Calm,Calm,-,N/A,,Clear,0,2013-07-29 15:35:00
11:55 AM,73.4,51.8,47,30.23,10.0,Calm,Calm,-,N/A,,Clear,0,2013-07-29 15:55:00
12:15 PM,73.4,50.0,44,30.23,10.0,Calm,Calm,-,N/A,,Clear,0,2013-07-29 16:15:00
12:35 PM,75.2,51.8,44,30.23,10.0,West,4.6,-,N/A,,Clear,280,2013-07-29 16:35:00
12:55 PM,73.4,53.6,50,30.22,10.0,NNE,4.6,-,N/A,,Clear,20,2013-07-29 16:55:00
1:15 PM,75.2,53.6,47,30.22,10.0,North,3.5,-,N/A,,Clear,350,2013-07-29 17:15:00
1:35 PM,75.2,53.6,47,30.22,10.0,ENE,3.5,-,N/A,,Clear,60,2013-07-29 17:35:00
1:55 PM,75.2,50.0,41,30.22,10.0,Calm,Calm,-,N/A,,Clear,0,2013-07-29 17:55:00
2:15 PM,77.0,53.6,44,30.22,10.0,West,5.8,-,N/A,,Clear,280,2013-07-29 18:15:00
2:35 PM,77.0,53.6,44,30.21,10.0,NE,4.6,-,N/A,,Clear,40,2013-07-29 18:35:00
2:55 PM,77.0,53.6,44,30.21,10.0,North,3.5,-,N/A,,Clear,350,2013-07-29 18:55:00
3:15 PM,77.0,53.6,44,30.21,10.0,Calm,Calm,-,N/A,,Clear,0,2013-07-29 19:15:00
3:35 PM,77.0,53.6,44,30.20,10.0,Calm,Calm,-,N/A,,Clear,0,2013-07-29 19:35:00
3:55 PM,77.0,53.6,44,30.20,10.0,West,6.9,-,N/A,,Clear,270,2013-07-29 19:55:00
4:15 PM,77.0,53.6,44,30.20,10.0,SW,5.8,-,N/A,,Clear,230,2013-07-29 20:15:00
4:35 PM,78.8,53.6,42,30.19,10.0,WNW,3.5,-,N/A,,Clear,290,2013-07-29 20:35:00
4:55 PM,78.8,53.6,42,30.19,10.0,Calm,Calm,-,N/A,,Clear,0,2013-07-29 20:55:00
5:15 PM,78.8,55.4,44,30.19,10.0,Calm,Calm,-,N/A,,Clear,0,2013-07-29 21:15:00
5:35 PM,78.8,53.6,42,30.19,10.0,Calm,Calm,-,N/A,,Clear,0,2013-07-29 21:35:00
5:55 PM,78.8,57.2,47,30.19,10.0,Calm,Calm,-,N/A,,Clear,0,2013-07-29 21:55:00
6:15 PM,77.0,55.4,47,30.19,10.0,Calm,Calm,-,N/A,,Clear,0,2013-07-29 22:15:00
6:35 PM,77.0,55.4,47,30.20,10.0,Calm,Calm,-,N/A,,Clear,0,2013-07-29 22:35:00
6:55 PM,75.2,55.4,50,30.20,10.0,Calm,Calm,-,N/A,,Partly Cloudy,0,2013-07-29 22:55:00
7:15 PM,75.2,57.2,53,30.20,10.0,Calm,Calm,-,N/A,,Clear,0,2013-07-29 23:15:00
7:35 PM,73.4,59.0,61,30.21,10.0,Calm,Calm,-,N/A,,Clear,0,2013-07-29 23:35:00
7:55 PM,73.4,57.2,57,30.21,10.0,Calm,Calm,-,N/A,,Clear,0,2013-07-29 23:55:00
8:15 PM,73.4,59.0,61,30.22,10.0,Calm,Calm,-,N/A,,Clear,0,2013-07-30 00:15:00
8:35 PM,69.8,59.0,68,30.23,10.0,Calm,Calm,-,N/A,,Unknown,0,2013-07-30 00:35:00
8:55 PM,68.0,59.0,73,30.23,10.0,Calm,Calm,-,N/A,,Unknown,0,2013-07-30 00:55:00
9:15 PM,66.2,60.8,83,30.24,10.0,Calm,Calm,-,N/A,,Unknown,0,2013-07-30 01:15:00
9:35 PM,66.2,59.0,78,30.25,10.0,Calm,Calm,-,N/A,,Unknown,0,2013-07-30 01:35:00
9:55 PM,62.6,59.0,88,30.26,10.0,Calm,Calm,-,N/A,,Unknown,0,2013-07-30 01:55:00
10:15 PM,62.6,59.0,88,30.27,10.0,Calm,Calm,-,N/A,,Unknown,0,2013-07-30 02:15:00
10:35 PM,60.8,59.0,94,30.27,10.0,Calm,Calm,-,N/A,,Unknown,0,2013-07-30 02:35:00
10:55 PM,62.6,59.0,88,30.27,10.0,Calm,Calm,-,N/A,,Unknown,0,2013-07-30 02:55:00
11:15 PM,59.0,59.0,100,30.27,10.0,Calm,Calm,-,N/A,,Unknown,0,2013-07-30 03:15:00
11:35 PM,60.8,59.0,94,30.27,10.0,Calm,Calm,-,N/A,,Unknown,0,2013-07-30 03:35:00
11:55 PM,59.0,57.2,94,30.27,10.0,Calm,Calm,-,N/A,,Unknown,0,2013-07-30 03:55:00